Погода Верещагино

Погода Верещагино : погода сейчас, прогноз погоды и архив. Всё, что Вы хотите узнать о погоде Верещагино!

Поиск расширенной информации на нашем сайте:

Другие новости

Новости СМИ2

Главная страница сайта

Новости сайта

03.07.2017

Напоминаем, что на нашем специализированном сайте Метеоцентр.Азия вы можете получить высокодетализированные автоматические прогнозы погоды по пунктам России, СНГ и мира в авиационном формате (включающие направление и скорость ветра, видимость, явления погоды, количество и форму облачности, нижнюю и верхнюю границу облачности).


Погода Верещагино - сегодня

Время (UTC), дата Ветер
(°,м/с) 
Видим.   Явления Облачность Т
(°С)
Тd
(°С)
f(%) Тe
(°С)
Pmin
(гПа)
dP
(гПа)
Po
(мм)
O2
(г/м3)
Тmin Tmax R s Состояние
почвы
18 21.11.17 080 (В) н/о    10/0 средняя, верхняя 
[Ac As|Cs]
-22.2 -25.4 75 -23  1025.6  -0.3  766  338           
21 21.11.17 070 (В) н/о    10/0 верхняя 
[Cs]
-20.8 -24.1 75 -21  1026.2  0.6  767  336           
00 22.11.17 360 (С) н/о  слаб. снег  10/0 средняя, верхняя 
[As op|Cs]
-22.5 -26.5 70 -23  1025.8  -0.4  766  338  -27.2    0.0  37  равномерный
сухой снег
100% 
03 22.11.17 090 (В) 20000 м  {снег}  4/0 средняя, верхняя 
[Ac lent|Cs]
-22.7 -25.9 75 -23  1027.3  1.5  767  339           
06 22.11.17 тихо ()   20000 м  {снег}  ясно 
-23.4 -27.4 70 -23  1029.4  769  341           
09 22.11.17 090 (В) 20000 м    1/0 верхняя 
[Ci fib]
-23.6 -27.6 70 -24  1030.8  1.4  770  341           
12 22.11.17 070 (В) н/о    1/0 верхняя 
[Ci fib]
-27.4 -31.2 70 -28  1031.8  771  347    -21.6  0.0     
15 22.11.17 360 (С) н/о    1/0 верхняя 
[Ci fib]
-29.5 -33.3 70 -30  1032.1  0.2  771  350           
18 22.11.17 тихо ()   н/о    1/0 верхняя 
[Ci fib]
-29.5 -33.3 70 -30  1031.9  -0.2  771  350           
21 22.11.17 080 (В) н/о    8/0 средняя, верхняя 
[Ac As|Ci fib]
-23.7 -27.6 70 -27  1031.3  -0.5  770  342           
00 23.11.17 080 (В) н/о    8/0 средняя, верхняя 
[Ac As|Ci fib]
-22.7 -26.7 70 -23  1030.6  -0.7  770  340  -29.5      36  равномерный
сухой снег
100% 
03 23.11.17 070 (В) 20000 м    8/0 средняя, верхняя 
[Ac As|Ci fib]
-21.4 -24.7 75 -24  1029.9  -0.6  769  338           
06 23.11.17 070 (В) 20000 м    8/0 средняя, верхняя 
[Ac As|Cs]
-21.5 -25.6 69 -22  1029.9  769  338           
09 23.11.17 060 (СВ) 20000 м    8/0 средняя, верхняя 
[Ac As|Cs]
-21.4 -24.7 75 -22  1030  0.1  769  338           
12 23.11.17 050 (СВ) н/о    6/0 средняя, верхняя 
[Ac As|Cs]
-22.8 -26.8 70 -23  1030  -0.1  769  340    -21.3       
15 23.11.17 050 (СВ) н/о    6/0 средняя, верхняя 
[Ac As|Ci fib]
-24.1 -28.1 69 -25  1029.8  -0.2  769  342           
18 23.11.17 070 (В) н/о    5/0 средняя, верхняя 
[Ac As|Ci fib]
-23.7 -27.6 70 -28  1029.6  -0.2  769  341           
21 23.11.17 040 (СВ) н/о    5/0 средняя, верхняя 
[Ac As|Ci fib]
-25.4 -29.2 70 -26  1029.3  -0.3  769  343           
00 24.11.17 060 (СВ) н/о    3/0 верхняя 
[Ci fib]
-27 -30.9 69 -28  1029.2  -0.1  769  346  -27.5      35  равномерный
сухой снег
100% 
03 24.11.17 080 (В) 20000 м    10/0 средняя, верхняя 
[Ac As|Cs]
-22.8 -26 75 -23  1027.7  -1.5  768  339           
06 24.11.17 090 (В) 20000 м    10/0 средняя 
[Ac As]
-19.7 -23.8 70 -22  1026.2  -1.5  766  335           
09 24.11.17 120 (ЮВ) 20000 м    10/0 средняя 
[Ac As]
-17.9 -22 70 -22  1024.2  -1.9  765  332           
12 24.11.17 100 (В) 3{10}  н/о  слаб. снег  10/0 средняя 
[Ac As]
-17.3 -21.5 70 -21  1019.9  -4.2  762  329    -17.3  0.2     
15 24.11.17 110 (В) 3{12}  н/о  слаб. снег  10/0 средняя 
[Ac As]
-16.3 -20.5 70 -20  1014  -5.9  757  326           
21 24.11.17 140 (ЮВ) 4-11{15}  0200 м  ливневой снег  10/10 300 м кучево-дожд. 
[Cb cap]
-15.2 -18.6 75 -20  1002.6  -5.3  748  321           
Время (UTC), дата Ветер
(°,м/с) 
Видим.   Явления Облачность Т
(°С)
Тd
(°С)
f(%) Тe
(°С)
Pmin
(гПа)
dP
(гПа)
Po
(мм)
O2
(г/м3)
Тmin Tmax R s Состояние
почвы

Для получения пояснительной информации подведите курсор к названию столбца.

ПОГОДА Верещагино - архив

Всё, что Вы хотите узнать о погоде Верещагино - удобно и подробно!

Выберите нужную дату (начиная с 1 января 2015* года) и нажмите кнопку "Найти".
Будут отображены архивные сводки погоды по пункту Верещагино, начиная с указанной даты.


Отображать данные в формате CSV (для использования в таблицах Excel)


Внимание! Наш архив погоды предназначен исключительно для личного некоммерческого использования в познавательных целях. Если Вам необходимы официальные справки о состоянии погоды (для производственных, юридических, коммерческих и т.п. целей), обращайтесь в органы Росгидромета.

*Примечание: данная дата относится к архиву по метеостанциям СССР (Россия, СНГ, Балтия).
Архив по метеостанциям Зарубежной Европы и Азии (кроме Китая) хранится 10 дней, по другим регионам земного шара (Китай, Африка, Америка, Австралия, Океания) - 1 день.

Верещагино - район местоположения метеостанции


Название, широта, долгота, высота метеостанции:
Верещагино 64.2°ш. 87.6°д. 26 м над ур. моря [Российская Федерация]

Дополнительная информация

В oтличие oт бoльшинства пoгoдных сайтoв мы публикуем пoдрoбную метеoинфoрмацию в детальнoм прoфессиoнальнoм фoрмате.

Характеристики температуры и влажнoсти вoздуха измеряются на высoте 2 м в тени вдали oт зданий и деревьев.
Скoрoсть ветра измеряется на высoте 10 м (на урoвне рoста челoвека скoрoсть ветра ниже в 1.5-2 раза). Если метеoстанция нахoдится в гoрoде или в лесу, тo скoрoсть ветра занижена на 2-4 м/с пo сравнению с oткрытым местoм. Скoрoсть ветра над акватoриями крупных рек и oзёр, а также на вершинах хoлмoв на 2-5 м/с выше, чем в oбычных услoвиях.
Атмoсфернoе давление в разных тoчках местнoсти мoжет значительнo oтличаться oт давления на метеoстанции, в зависимoсти oт услoвий рельефа (при пoдъёме на 10 м давление пoнижается примернo на 1 мм рт.ст.).